Time,TemperatureF,DewpointF,PressureIn,WindDirection,WindDirectionDegrees,WindSpeedMPH,WindSpeedGustMPH,Humidity,HourlyPrecipIn,Conditions,Clouds,dailyrainin,SolarRadiationWatts/m^2,SoftwareType,DateUTC
2013-11-16 00:22:00,37.0,35.0,-100.00,East,80,0.0,3.0,94,0.00,,,0.00,0.000000,,2013-11-16 08:22:00,
2013-11-16 00:32:00,37.0,35.0,-100.00,East,80,0.0,3.0,94,0.00,,,0.00,0.000000,,2013-11-16 08:32:00,
2013-11-16 00:41:00,37.0,35.0,-100.00,East,80,0.0,3.0,94,0.00,,,0.00,0.000000,,2013-11-16 08:41:00,
2013-11-16 00:52:00,37.0,35.0,-100.00,East,80,0.0,3.0,94,0.00,,,0.00,0.000000,,2013-11-16 08:52:00,
2013-11-16 01:22:00,35.0,34.0,-100.00,East,95,0.0,3.0,97,0.00,,,0.00,0.000000,,2013-11-16 09:22:00,
2013-11-16 01:33:00,35.0,34.0,-100.00,East,95,0.0,3.0,97,0.00,,,0.00,0.000000,,2013-11-16 09:33:00,
2013-11-16 01:42:00,35.0,34.0,-100.00,East,95,0.0,3.0,97,0.00,,,0.00,0.000000,,2013-11-16 09:42:00,
2013-11-16 01:53:00,35.0,34.0,-100.00,East,95,0.0,3.0,97,0.00,,,0.00,0.000000,,2013-11-16 09:53:00,
2013-11-16 02:23:00,40.0,37.0,-100.00,ESE,106,0.0,0.0,89,0.00,,,0.00,0.000000,,2013-11-16 10:23:00,
2013-11-16 02:33:00,40.0,37.0,-100.00,ESE,106,0.0,0.0,89,0.00,,,0.00,0.000000,,2013-11-16 10:33:00,
2013-11-16 02:42:00,40.0,37.0,-100.00,ESE,106,0.0,0.0,89,0.00,,,0.00,0.000000,,2013-11-16 10:42:00,
2013-11-16 02:52:00,40.0,37.0,-100.00,ESE,106,0.0,0.0,89,0.00,,,0.00,0.000000,,2013-11-16 10:52:00,
2013-11-16 03:22:00,38.0,37.0,-100.00,East,82,0.0,4.0,97,0.00,,,0.00,0.000000,,2013-11-16 11:22:00,
2013-11-16 03:32:00,38.0,37.0,-100.00,East,82,0.0,4.0,97,0.00,,,0.00,0.000000,,2013-11-16 11:32:00,
2013-11-16 03:42:00,38.0,37.0,-100.00,East,82,0.0,4.0,97,0.00,,,0.00,0.000000,,2013-11-16 11:42:00,
2013-11-16 03:52:00,38.0,37.0,-100.00,East,82,0.0,4.0,97,0.00,,,0.00,0.000000,,2013-11-16 11:52:00,
2013-11-16 04:21:00,36.0,35.0,-100.00,ENE,77,0.0,5.0,96,0.00,,,0.00,0.000000,,2013-11-16 12:21:00,
2013-11-16 04:32:00,36.0,35.0,-100.00,ENE,77,0.0,5.0,96,0.00,,,0.00,0.000000,,2013-11-16 12:32:00,
2013-11-16 04:42:00,36.0,35.0,-100.00,ENE,77,0.0,5.0,96,0.00,,,0.00,0.000000,,2013-11-16 12:42:00,
2013-11-16 04:52:00,36.0,35.0,-100.00,ENE,77,0.0,5.0,96,0.00,,,0.00,0.000000,,2013-11-16 12:52:00,
2013-11-16 05:21:00,41.0,37.0,-100.00,ENE,78,0.0,4.0,85,0.00,,,0.00,0.000000,,2013-11-16 13:21:00,
2013-11-16 05:32:00,41.0,37.0,-100.00,ENE,78,0.0,4.0,85,0.00,,,0.00,0.000000,,2013-11-16 13:32:00,
2013-11-16 05:42:00,41.0,37.0,-100.00,ENE,78,0.0,4.0,85,0.00,,,0.00,0.000000,,2013-11-16 13:42:00,
2013-11-16 05:52:00,41.0,37.0,-100.00,ENE,78,0.0,4.0,85,0.00,,,0.00,0.000000,,2013-11-16 13:52:00,
2013-11-16 06:22:00,42.0,38.0,-100.00,ENE,76,0.0,3.0,84,0.00,,,0.00,0.000000,,2013-11-16 14:22:00,
2013-11-16 06:32:00,42.0,38.0,-100.00,ENE,76,0.0,3.0,84,0.00,,,0.00,0.000000,,2013-11-16 14:32:00,
2013-11-16 06:42:00,42.0,38.0,-100.00,ENE,76,0.0,3.0,84,0.00,,,0.00,0.000000,,2013-11-16 14:42:00,
2013-11-16 06:52:00,42.0,38.0,-100.00,ENE,76,0.0,3.0,84,0.00,,,0.00,0.000000,,2013-11-16 14:52:00,
2013-11-16 07:21:00,43.0,39.0,-100.00,NE,49,0.0,0.0,85,0.00,,,0.00,0.000000,,2013-11-16 15:21:00,
2013-11-16 07:33:00,43.0,39.0,-100.00,NE,49,0.0,0.0,85,0.00,,,0.00,0.000000,,2013-11-16 15:33:00,
2013-11-16 07:43:00,43.0,39.0,-100.00,NE,49,0.0,0.0,85,0.00,,,0.00,0.000000,,2013-11-16 15:43:00,
2013-11-16 07:53:00,43.0,39.0,-100.00,NE,49,0.0,0.0,85,0.00,,,0.00,0.000000,,2013-11-16 15:53:00,
2013-11-16 08:23:00,43.0,37.0,-100.00,East,81,0.0,0.0,80,0.00,,,0.00,37.000000,,2013-11-16 16:23:00,
2013-11-16 08:33:00,43.0,37.0,-100.00,East,81,0.0,0.0,80,0.00,,,0.00,37.000000,,2013-11-16 16:33:00,
2013-11-16 08:43:00,43.0,37.0,-100.00,East,81,0.0,0.0,80,0.00,,,0.00,37.000000,,2013-11-16 16:43:00,
2013-11-16 08:53:00,43.0,37.0,-100.00,East,81,0.0,0.0,80,0.00,,,0.00,37.000000,,2013-11-16 16:53:00,
2013-11-16 09:22:00,46.0,35.0,-100.00,WSW,248,0.0,0.0,66,0.00,,,0.00,110.000000,,2013-11-16 17:22:00,
2013-11-16 09:33:00,46.0,35.0,-100.00,WSW,248,0.0,0.0,66,0.00,,,0.00,110.000000,,2013-11-16 17:33:00,
2013-11-16 09:42:00,46.0,35.0,-100.00,WSW,248,0.0,0.0,66,0.00,,,0.00,110.000000,,2013-11-16 17:42:00,
2013-11-16 09:52:00,46.0,35.0,-100.00,WSW,248,0.0,0.0,66,0.00,,,0.00,110.000000,,2013-11-16 17:52:00,
2013-11-16 10:23:00,51.0,38.0,-100.00,WSW,256,0.0,3.0,61,0.00,,,0.00,235.000000,,2013-11-16 18:23:00,
2013-11-16 10:32:00,51.0,38.0,-100.00,WSW,256,0.0,3.0,61,0.00,,,0.00,235.000000,,2013-11-16 18:32:00,
2013-11-16 10:42:00,51.0,38.0,-100.00,WSW,256,0.0,3.0,61,0.00,,,0.00,235.000000,,2013-11-16 18:42:00,
2013-11-16 10:52:00,51.0,38.0,-100.00,WSW,256,0.0,3.0,61,0.00,,,0.00,235.000000,,2013-11-16 18:52:00,
2013-11-16 11:22:00,51.0,37.0,-100.00,NNW,337,1.0,5.0,59,0.00,,,0.00,310.000000,,2013-11-16 19:22:00,
2013-11-16 11:32:00,51.0,37.0,-100.00,NNW,337,1.0,5.0,59,0.00,,,0.00,310.000000,,2013-11-16 19:32:00,
2013-11-16 11:42:00,51.0,37.0,-100.00,NNW,337,1.0,5.0,59,0.00,,,0.00,310.000000,,2013-11-16 19:42:00,
2013-11-16 11:53:00,51.0,37.0,-100.00,NNW,337,1.0,5.0,59,0.00,,,0.00,310.000000,,2013-11-16 19:53:00,
2013-11-16 12:42:00,60.0,40.0,-100.00,WSW,240,3.0,6.0,47,0.00,,,0.00,848.000000,,2013-11-16 20:42:00,
2013-11-16 12:53:00,60.0,40.0,-100.00,WSW,240,3.0,6.0,47,0.00,,,0.00,848.000000,,2013-11-16 20:53:00,
2013-11-16 13:44:00,60.0,39.0,-100.00,SW,229,5.0,9.0,45,0.00,,,0.00,883.000000,,2013-11-16 21:44:00,
2013-11-16 13:54:00,60.0,39.0,-100.00,SW,229,5.0,9.0,45,0.00,,,0.00,883.000000,,2013-11-16 21:54:00,
2013-11-16 14:24:00,59.0,39.0,-100.00,WSW,252,3.0,11.0,47,0.00,,,0.00,672.000000,,2013-11-16 22:24:00,
2013-11-16 14:34:00,59.0,39.0,-100.00,WSW,252,3.0,11.0,47,0.00,,,0.00,672.000000,,2013-11-16 22:34:00,
2013-11-16 14:42:00,59.0,39.0,-100.00,WSW,252,3.0,11.0,47,0.00,,,0.00,672.000000,,2013-11-16 22:42:00,
2013-11-16 14:53:00,59.0,39.0,-100.00,WSW,252,3.0,11.0,47,0.00,,,0.00,672.000000,,2013-11-16 22:53:00,
2013-11-16 15:22:00,58.0,38.0,-100.00,WSW,246,4.0,9.0,47,0.00,,,0.00,389.000000,,2013-11-16 23:22:00,
2013-11-16 15:34:00,58.0,38.0,-100.00,WSW,246,4.0,9.0,47,0.00,,,0.00,389.000000,,2013-11-16 23:34:00,
2013-11-16 15:43:00,58.0,38.0,-100.00,WSW,246,4.0,9.0,47,0.00,,,0.00,389.000000,,2013-11-16 23:43:00,
2013-11-16 15:53:00,58.0,38.0,-100.00,WSW,246,4.0,9.0,47,0.00,,,0.00,389.000000,,2013-11-16 23:53:00,
2013-11-16 16:22:00,55.0,36.0,-100.00,SW,236,3.0,9.0,48,0.00,,,0.00,263.000000,,2013-11-17 00:22:00,
2013-11-16 16:32:00,55.0,36.0,-100.00,SW,236,3.0,9.0,48,0.00,,,0.00,263.000000,,2013-11-17 00:32:00,
2013-11-16 16:42:00,55.0,36.0,-100.00,SW,236,3.0,9.0,48,0.00,,,0.00,263.000000,,2013-11-17 00:42:00,
2013-11-16 16:52:00,55.0,36.0,-100.00,SW,236,3.0,9.0,48,0.00,,,0.00,263.000000,,2013-11-17 00:52:00,
2013-11-16 17:22:00,49.0,36.0,-100.00,ESE,102,0.0,7.0,60,0.00,,,0.00,58.000000,,2013-11-17 01:22:00,
2013-11-16 17:32:00,49.0,36.0,-100.00,ESE,102,0.0,7.0,60,0.00,,,0.00,58.000000,,2013-11-17 01:32:00,
2013-11-16 17:42:00,49.0,36.0,-100.00,ESE,102,0.0,7.0,60,0.00,,,0.00,58.000000,,2013-11-17 01:42:00,
2013-11-16 17:52:00,49.0,36.0,-100.00,ESE,102,0.0,7.0,60,0.00,,,0.00,58.000000,,2013-11-17 01:52:00,
2013-11-16 18:21:00,41.0,32.0,-100.00,ESE,102,0.0,2.0,71,0.00,,,0.00,0.000000,,2013-11-17 02:21:00,
2013-11-16 18:32:00,41.0,32.0,-100.00,ESE,102,0.0,2.0,71,0.00,,,0.00,0.000000,,2013-11-17 02:32:00,
2013-11-16 18:42:00,41.0,32.0,-100.00,ESE,102,0.0,2.0,71,0.00,,,0.00,0.000000,,2013-11-17 02:42:00,
2013-11-16 18:52:00,41.0,32.0,-100.00,ESE,102,0.0,2.0,71,0.00,,,0.00,0.000000,,2013-11-17 02:52:00,
2013-11-16 19:22:00,40.0,32.0,-100.00,East,94,0.0,2.0,72,0.00,,,0.00,0.000000,,2013-11-17 03:22:00,
2013-11-16 19:34:00,40.0,32.0,-100.00,East,94,0.0,2.0,72,0.00,,,0.00,0.000000,,2013-11-17 03:34:00,
2013-11-16 19:44:00,40.0,32.0,-100.00,East,94,0.0,2.0,72,0.00,,,0.00,0.000000,,2013-11-17 03:44:00,
2013-11-16 19:55:00,40.0,32.0,-100.00,East,94,0.0,2.0,72,0.00,,,0.00,0.000000,,2013-11-17 03:55:00,
2013-11-16 20:24:00,41.0,33.0,-100.00,East,101,0.0,4.0,72,0.00,,,0.00,0.000000,,2013-11-17 04:24:00,
2013-11-16 20:34:00,41.0,33.0,-100.00,East,101,0.0,4.0,72,0.00,,,0.00,0.000000,,2013-11-17 04:34:00,
2013-11-16 20:43:00,41.0,33.0,-100.00,East,101,0.0,4.0,72,0.00,,,0.00,0.000000,,2013-11-17 04:43:00,
2013-11-16 20:53:00,41.0,33.0,-100.00,East,101,0.0,4.0,72,0.00,,,0.00,0.000000,,2013-11-17 04:53:00,
2013-11-16 21:23:00,42.0,33.0,-100.00,ESE,105,0.0,3.0,70,0.00,,,0.00,0.000000,,2013-11-17 05:23:00,
2013-11-16 21:34:00,42.0,33.0,-100.00,ESE,105,0.0,3.0,70,0.00,,,0.00,0.000000,,2013-11-17 05:34:00,
2013-11-16 21:44:00,42.0,33.0,-100.00,ESE,105,0.0,3.0,70,0.00,,,0.00,0.000000,,2013-11-17 05:44:00,
2013-11-16 21:53:00,42.0,33.0,-100.00,ESE,105,0.0,3.0,70,0.00,,,0.00,0.000000,,2013-11-17 05:53:00,
2013-11-16 22:22:00,42.0,32.0,-100.00,ESE,106,0.0,4.0,68,0.00,,,0.00,0.000000,,2013-11-17 06:22:00,
2013-11-16 22:32:00,42.0,32.0,-100.00,ESE,106,0.0,4.0,68,0.00,,,0.00,0.000000,,2013-11-17 06:32:00,
2013-11-16 22:42:00,42.0,32.0,-100.00,ESE,106,0.0,4.0,68,0.00,,,0.00,0.000000,,2013-11-17 06:42:00,
2013-11-16 22:52:00,42.0,32.0,-100.00,ESE,106,0.0,4.0,68,0.00,,,0.00,0.000000,,2013-11-17 06:52:00,
2013-11-16 23:22:00,39.0,30.0,-100.00,East,97,0.0,5.0,70,0.00,,,0.00,0.000000,,2013-11-17 07:22:00,
2013-11-16 23:32:00,39.0,30.0,-100.00,East,97,0.0,5.0,70,0.00,,,0.00,0.000000,,2013-11-17 07:32:00,
2013-11-16 23:42:00,39.0,30.0,-100.00,East,97,0.0,5.0,70,0.00,,,0.00,0.000000,,2013-11-17 07:42:00,
2013-11-16 23:53:00,39.0,30.0,-100.00,East,97,0.0,5.0,70,0.00,,,0.00,0.000000,,2013-11-17 07:53:00,